TimeEDT,TemperatureF,Dew PointF,Humidity,Sea Level PressureIn,VisibilityMPH,Wind Direction,Wind SpeedMPH,Gust SpeedMPH,PrecipitationIn,Events,Conditions,WindDirDegrees,DateUTC
12:53 AM,81.0,73.9,79,29.82,8.0,SW,8.1,-,N/A,,Clear,230,2013-07-20 04:53:00
1:53 AM,80.1,73.9,81,29.82,7.0,SW,6.9,-,N/A,,Clear,230,2013-07-20 05:53:00
2:53 AM,79.0,73.9,84,29.80,7.0,SW,6.9,-,N/A,,Clear,230,2013-07-20 06:53:00
3:53 AM,79.0,73.9,84,29.78,7.0,SW,4.6,-,N/A,,Clear,230,2013-07-20 07:53:00
4:53 AM,80.1,73.9,81,29.78,7.0,SW,6.9,-,N/A,,Clear,220,2013-07-20 08:53:00
5:53 AM,79.0,73.0,82,29.79,6.0,SW,9.2,-,N/A,,Haze,230,2013-07-20 09:53:00
6:53 AM,81.0,71.1,72,29.80,9.0,WSW,11.5,-,N/A,,Clear,240,2013-07-20 10:53:00
7:20 AM,80.6,69.8,70,29.81,10.0,WSW,10.4,-,N/A,,Partly Cloudy,250,2013-07-20 11:20:00
7:53 AM,81.0,70.0,69,29.81,10.0,WSW,9.2,-,N/A,,Clear,240,2013-07-20 11:53:00
8:45 AM,82.4,69.8,66,29.81,10.0,West,12.7,-,N/A,,Partly Cloudy,260,2013-07-20 12:45:00
8:53 AM,82.9,69.1,63,29.81,10.0,WSW,11.5,-,N/A,,Partly Cloudy,250,2013-07-20 12:53:00
9:53 AM,87.1,70.0,57,29.79,10.0,WSW,11.5,-,N/A,,Clear,240,2013-07-20 13:53:00
10:53 AM,88.0,71.1,57,29.79,10.0,SW,13.8,-,N/A,,Clear,220,2013-07-20 14:53:00
11:53 AM,90.0,71.1,54,29.78,10.0,SW,11.5,-,N/A,,Clear,220,2013-07-20 15:53:00
12:53 PM,89.1,70.0,53,29.77,10.0,SW,19.6,26.5,N/A,,Clear,230,2013-07-20 16:53:00
1:53 PM,90.0,72.0,55,29.75,10.0,SW,20.7,28.8,N/A,,Clear,220,2013-07-20 17:53:00
2:53 PM,89.1,73.0,59,29.74,10.0,SW,15.0,26.5,N/A,,Clear,220,2013-07-20 18:53:00
3:53 PM,89.1,73.0,59,29.72,10.0,SW,9.2,20.7,N/A,,Mostly Cloudy,220,2013-07-20 19:53:00
4:53 PM,91.9,68.0,45,29.73,10.0,West,13.8,-,N/A,,Scattered Clouds,280,2013-07-20 20:53:00
5:53 PM,93.0,66.9,42,29.73,10.0,West,8.1,24.2,N/A,,Partly Cloudy,280,2013-07-20 21:53:00
6:53 PM,91.0,66.9,45,29.74,10.0,NW,5.8,25.3,N/A,,Mostly Cloudy,310,2013-07-20 22:53:00
7:53 PM,88.0,66.9,49,29.77,10.0,WNW,5.8,-,N/A,,Mostly Cloudy,290,2013-07-20 23:53:00
8:53 PM,84.0,68.0,58,29.80,10.0,WSW,10.4,-,N/A,,Partly Cloudy,250,2013-07-21 00:53:00
9:53 PM,82.9,66.9,58,29.82,10.0,WSW,8.1,-,N/A,,Mostly Cloudy,250,2013-07-21 01:53:00
10:53 PM,82.0,66.0,58,29.82,10.0,West,3.5,-,N/A,,Overcast,270,2013-07-21 02:53:00
11:53 PM,82.0,66.9,60,29.83,10.0,NNW,4.6,-,N/A,,Overcast,330,2013-07-21 03:53:00